KF4PPJ Weather Reports


time (UTC)temp
C
wind
direction
speed
KPH
gust
KPH
rain 1hr
cm
rain 24hr
cm
rain mn
cm
humidity
%
barometer
mb
20260510024502 17 172 1.6 1.6 0.00 0.00 0.00 68 1018.9
20260510023958 17 164 1.6 1.6 0.00 0.00 0.00 65 1019.0
20260510023448 17 167 0.0 3.2 0.00 0.00 0.00 64 1019.0
20260510022945 18 211 3.2 3.2 0.00 0.00 0.00 63 1019.1
20260510022444 18 202 3.2 4.8 0.00 0.00 0.00 62 1019.2
20260510021943 19 164 1.6 1.6 0.00 0.00 0.00 60 1019.0
20260510021441 20 207 4.8 4.8 0.00 0.00 0.00 56 1019.0
20260510020938 20 157 1.6 1.6 0.00 0.00 0.00 58 1019.1
20260510020432 20 152 1.6 1.6 0.00 0.00 0.00 54 1019.0
20260510015928 20 159 1.6 1.6 0.00 0.00 0.00 54 1019.0
20260510015425 19 151 0.0 0.0 0.00 0.00 0.00 55 1019.4
20260510014919 19 158 0.0 1.6 0.00 0.00 0.00 56 1019.3
20260510014418 19 173 1.6 1.6 0.00 0.00 0.00 56 1019.3
20260510013914 19 173 1.6 4.8 0.00 0.00 0.00 55 1019.4
20260510013409 19 127 3.2 9.7 0.00 0.00 0.00 56 1019.6
20260510012904 19 151 1.6 16.1 0.00 0.00 0.00 54 1019.6
20260510012359 20 200 3.2 3.2 0.00 0.00 0.00 53 1019.7
20260510011854 20 231 3.2 8.0 0.00 0.00 0.00 52 1019.6
20260510011349 21 180 3.2 8.0 0.00 0.00 0.00 50 1019.7
20260510010846 21 192 3.2 4.8 0.00 0.00 0.00 52 1019.8
20260510010344 20 187 1.6 3.2 0.00 0.00 0.00 51 1019.8
20260510005840 20 223 4.8 8.0 0.00 0.00 0.00 51 1019.7
20260510005336 20 218 3.2 3.2 0.00 0.00 0.00 50 1019.9
20260510004834 21 176 3.2 3.2 0.00 0.00 0.00 49 1019.9
20260510004331 20 175 1.6 1.6 0.00 0.00 0.00 51 1020.0
20260510003829 20 190 3.2 4.8 0.00 0.00 0.00 50 1020.1
20260510003326 20 220 4.8 4.8 0.00 0.00 0.00 50 1020.2
20260510002824 20 192 3.2 4.8 0.00 0.00 0.00 49 1019.9
20260510002322 20 217 3.2 8.0 0.00 0.00 0.00 48 1020.2
20260510001818 21 175 3.2 4.8 0.00 0.00 0.00 48 1020.2
20260510001317 21 159 1.6 4.8 0.00 0.00 0.00 48 1020.2
20260510000812 21 129 0.0 3.2 0.00 0.00 0.00 46 1020.3
20260510000311 21 222 4.8 4.8 0.00 0.00 0.00 44 1020.6
20260509235807 21 176 0.0 3.2 0.00 0.00 0.00 44 1020.3
20260509235306 21 160 1.6 3.2 0.00 0.00 0.00 44 1020.4
20260509234754 21 159 0.0 3.2 0.00 0.00 0.00 45 1020.4
20260509234250 21 116 3.2 3.2 0.00 0.00 0.00 43 1020.4
20260509233749 21 157 1.6 1.6 0.00 0.00 0.00 46 1020.6
20260509233246 21 141 3.2 8.0 0.00 0.00 0.00 42 1020.6
20260509232742 21 152 0.0 4.8 0.00 0.00 0.00 42 1020.8
20260509232240 21 151 3.2 4.8 0.00 0.00 0.00 44 1020.7
20260509231736 21 106 1.6 4.8 0.00 0.00 0.00 44 1020.8
20260509231233 20 161 1.6 4.8 0.00 0.00 0.00 45 1020.9
20260509230730 21 344 4.8 8.0 0.00 0.00 0.00 44 1021.1
20260509230227 21 134 1.6 4.8 0.00 0.00 0.00 45 1021.0
20260509225722 21 140 1.6 3.2 0.00 0.00 0.00 48 1021.2
20260509225219 20 201 4.8 4.8 0.00 0.00 0.00 47 1021.3
20260509224714 20 235 6.4 11.3 0.00 0.00 0.00 45 1021.2
20260509224211 20 142 4.8 8.0 0.00 0.00 0.00 47 1021.4
20260509223708 20 250 3.2 8.0 0.00 0.00 0.00 48 1021.7
20260509223205 20 270 3.2 9.7 0.00 0.00 0.00 47 1021.7
20260509222702 20 72 4.8 9.7 0.00 0.00 0.00 46 1021.4
20260509222157 20 228 16.1 20.9 0.00 0.00 0.00 46 1021.6
20260509221648 20 191 6.4 11.3 0.00 0.00 0.00 47 1021.6
20260509221144 20 251 8.0 9.7 0.00 0.00 0.00 47 1021.8
20260509220640 20 268 3.2 8.0 0.00 0.00 0.00 47 1021.6
20260509220136 20 175 6.4 9.7 0.00 0.00 0.00 47 1021.7
20260509215633 20 190 4.8 9.7 0.00 0.00 0.00 47 1021.8
20260509215129 20 172 3.2 4.8 0.00 0.00 0.00 50 1021.8
20260509214626 20 141 1.6 9.7 0.00 0.00 0.00 51 1021.9
20260509214117 20 150 1.6 4.8 0.00 0.00 0.00 50 1021.8
20260509213613 20 156 0.0 3.2 0.00 0.00 0.00 53 1021.9
20260509213109 20 62 6.4 14.5 0.00 0.00 0.00 52 1021.8
20260509212607 20 235 8.0 9.7 0.00 0.00 0.00 52 1022.0
20260509212058 20 216 4.8 4.8 0.00 0.00 0.00 53 1021.8
20260509211554 19 209 4.8 9.7 0.00 0.00 0.00 54 1021.9
20260509211051 19 349 4.8 9.7 0.00 0.00 0.00 54 1021.9
20260509210547 20 76 6.4 9.7 0.00 0.00 0.00 54 1022.1
20260509210044 19 151 4.8 9.7 0.00 0.00 0.00 55 1022.1
20260509205538 20 214 4.8 9.7 0.00 0.00 0.00 54 1022.1
20260509205034 20 173 3.2 3.2 0.00 0.00 0.00 54 1022.3
20260509204530 19 180 1.6 4.8 0.00 0.00 0.00 55 1022.1
20260509204027 19 253 4.8 9.7 0.00 0.00 0.00 56 1022.0
20260509203522 19 252 4.8 4.8 0.00 0.00 0.00 57 1022.3
20260509203021 19 212 4.8 9.7 0.00 0.00 0.00 57 1022.2
20260509202515 20 237 4.8 9.7 0.00 0.00 0.00 56 1022.2
20260509202011 19 258 9.7 11.3 0.00 0.00 0.00 57 1022.4
20260509201506 19 173 4.8 8.0 0.00 0.00 0.00 57 1022.5
20260509201004 18 70 1.6 11.3 0.00 0.00 0.00 59 1022.4
20260509200503 18 0 3.2 9.7 0.00 0.00 0.00 61 1022.7
20260509200000 18 206 4.8 9.7 0.00 0.00 0.00 61 1022.7
20260509195455 18 238 9.7 11.3 0.00 0.00 0.00 59 1022.9
20260509194955 18 163 3.2 4.8 0.00 0.00 0.00 60 1022.7
20260509194451 18 207 3.2 11.3 0.00 0.00 0.00 60 1023.0
20260509193948 17 87 1.6 4.8 0.00 0.00 0.00 63 1023.2
20260509193448 17 342 6.4 11.3 0.00 0.00 0.00 62 1022.9
20260509192944 17 243 6.4 9.7 0.00 0.00 0.00 61 1023.2
20260509192441 18 299 6.4 9.7 0.00 0.00 0.00 62 1023.1
20260509191936 17 226 6.4 11.3 0.00 0.00 0.00 62 1023.2
20260509191432 18 18 8.0 11.3 0.00 0.00 0.00 62 1023.4
20260509190928 18 201 1.6 11.3 0.00 0.00 0.00 61 1023.4
20260509190425 18 216 6.4 9.7 0.00 0.00 0.00 61 1023.5
20260509185923 18 1 4.8 12.9 0.00 0.00 0.00 62 1023.4
20260509185420 18 149 3.2 8.0 0.00 0.00 0.00 61 1023.5
20260509184917 18 127 3.2 9.7 0.00 0.00 0.00 62 1023.6
20260509184414 17 167 1.6 3.2 0.00 0.00 0.00 63 1023.5
20260509183911 17 254 6.4 9.7 0.00 0.00 0.00 63 1023.6
20260509183405 17 136 1.6 9.7 0.00 0.00 0.00 64 1023.6
20260509182902 17 128 3.2 12.9 0.00 0.00 0.00 65 1023.5
20260509182358 17 160 0.0 9.7 0.00 0.00 0.00 65 1023.6
20260509181856 17 190 4.8 8.0 0.00 0.00 0.00 66 1023.6
20260509181347 17 224 4.8 8.0 0.00 0.00 0.00 66 1023.5
20260509180845 17 171 4.8 17.7 0.00 0.00 0.00 67 1023.5
20260509180340 17 355 8.0 11.3 0.00 0.00 0.00 66 1023.8
20260509175837 16 213 6.4 9.7 0.00 0.00 0.00 69 1023.9
20260509175333 16 196 1.6 4.8 0.00 0.00 0.00 69 1023.7
20260509174829 16 218 1.6 4.8 0.00 0.00 0.00 68 1024.0
20260509174325 16 148 1.6 8.0 0.00 0.00 0.00 70 1023.9
20260509173821 16 188 4.8 9.7 0.00 0.00 0.00 71 1024.1
20260509173317 16 155 6.4 9.7 0.00 0.00 0.00 70 1024.1
20260509172814 16 155 6.4 9.7 0.00 0.00 0.00 70 1024.1
20260509172310 16 19 4.8 12.9 0.00 0.00 0.00 71 1024.2
20260509171806 16 178 1.6 8.0 0.00 0.00 0.00 71 1024.0
20260509171302 16 265 4.8 4.8 0.00 0.00 0.00 70 1024.0
20260509170759 16 156 0.0 8.0 0.00 0.00 0.00 71 1024.0
20260509170254 15 224 4.8 8.0 0.00 0.00 0.00 72 1024.0
20260509165754 15 159 6.4 9.7 0.00 0.00 0.00 73 1024.0
20260509165244 15 29 6.4 9.7 0.00 0.00 0.00 72 1024.2
20260509164740 15 233 4.8 8.0 0.00 0.00 0.00 75 1024.2
20260509164235 15 211 8.0 14.5 0.00 0.00 0.00 75 1024.3
20260509163732 15 192 4.8 11.3 0.00 0.00 0.00 76 1024.3
20260509163228 14 151 0.0 4.8 0.00 0.00 0.00 78 1024.2
20260509162721 15 186 8.0 14.5 0.00 0.00 0.00 77 1024.5
20260509162216 15 201 11.3 14.5 0.00 0.00 0.00 77 1024.5
20260509161712 15 180 4.8 4.8 0.00 0.00 0.00 75 1024.4
20260509161209 15 122 0.0 0.0 0.00 0.00 0.00 75 1024.5
20260509160704 15 109 1.6 3.2 0.00 0.00 0.00 74 1024.5
20260509160200 15 135 1.6 1.6 0.00 0.00 0.00 75 1024.7
20260509155655 14 170 0.0 1.6 0.00 0.00 0.00 78 1024.8
20260509155152 13 100 1.6 3.2 0.00 0.00 0.00 79 1024.6
20260509154648 14 192 0.0 0.0 0.00 0.00 0.00 78 1024.8
20260509154145 13 157 0.0 0.0 0.00 0.00 0.00 78 1024.8
20260509153642 13 181 0.0 0.0 0.00 0.00 0.00 79 1024.9
20260509153139 13 191 0.0 0.0 0.00 0.00 0.00 80 1024.9
20260509152634 13 115 0.0 0.0 0.00 0.00 0.00 83 1025.0
20260509152132 13 145 0.0 0.0 0.00 0.00 0.00 85 1024.9
20260509151628 12 127 0.0 0.0 0.00 0.00 0.00 88 1024.9
20260509151126 12 146 0.0 0.0 0.00 0.00 0.00 91 1025.0
20260509150624 11 142 0.0 0.0 0.00 0.00 0.00 93 1025.0
20260509150122 11 153 0.0 1.6 0.00 0.00 0.00 95 1025.0
20260509145618 11 132 0.0 0.0 0.00 0.00 0.00 96 1025.2
20260509145113 11 151 0.0 0.0 0.00 0.00 0.00 97 1025.2
20260509144610 10 136 0.0 0.0 0.00 0.00 0.00 97 1025.3
20260509144107 10 156 1.6 3.2 0.00 0.00 0.00 97 1025.1
20260509143604 10 148 0.0 0.0 0.00 0.00 0.00 97 1025.3
20260509143102 9 146 0.0 0.0 0.00 0.00 0.00 97 1024.9
20260509142602 9 146 0.0 0.0 0.00 0.00 0.00 97 1025.1
20260509142058 8 146 0.0 0.0 0.00 0.00 0.00 96 1025.3
20260509141554 8 146 0.0 0.0 0.00 0.00 0.00 96 1025.2
20260509141051 8 146 0.0 0.0 0.00 0.00 0.00 96 1025.4
20260509140548 8 146 0.0 0.0 0.00 0.00 0.00 96 1025.2
20260509140046 8 143 0.0 0.0 0.00 0.00 0.00 96 1025.4
20260509135543 8 148 0.0 0.0 0.00 0.00 0.00 96 1025.3
20260509135041 8 148 0.0 0.0 0.00 0.00 0.00 96 1025.3
20260509134537 8 148 0.0 0.0 0.00 0.00 0.00 96 1025.5
20260509134035 8 148 0.0 0.0 0.00 0.00 0.00 96 1025.2
20260509133532 8 148 0.0 0.0 0.00 0.00 0.00 96 1025.2
20260509133029 8 148 0.0 0.0 0.00 0.00 0.00 96 1025.5
20260509132528 7 148 0.0 0.0 0.00 0.00 0.00 96 1025.6
20260509132026 7 148 0.0 0.0 0.00 0.00 0.00 96 1025.4
20260509131516 7 149 0.0 0.0 0.00 0.00 0.00 96 1025.5
20260509131013 7 145 0.0 0.0 0.00 0.00 0.00 96 1025.5
20260509130509 7 157 0.0 0.0 0.00 0.00 0.00 95 1025.4
20260509130006 7 153 0.0 0.0 0.00 0.00 0.00 95 1025.2
20260509125502 7 154 0.0 0.0 0.00 0.00 0.00 95 1025.3
20260509124958 7 153 0.0 0.0 0.00 0.00 0.00 95 1025.3
20260509124456 7 153 0.0 0.0 0.00 0.00 0.00 95 1025.2
20260509123953 7 153 0.0 0.0 0.00 0.00 0.00 95 1025.3
20260509123450 8 153 0.0 0.0 0.00 0.00 0.00 95 1025.1
20260509122945 8 147 0.0 0.0 0.00 0.00 0.00 95 1025.2
20260509122442 8 142 0.0 1.6 0.00 0.00 0.00 95 1025.4
20260509121939 8 143 0.0 0.0 0.00 0.00 0.00 95 1025.4
20260509121436 8 152 0.0 0.0 0.00 0.00 0.00 95 1025.2
20260509120934 8 152 0.0 0.0 0.00 0.00 0.00 95 1025.5
20260509120432 8 152 0.0 0.0 0.00 0.00 0.00 94 1025.5
20260509115929 8 153 0.0 0.0 0.00 0.00 0.00 94 1025.3
20260509115426 8 152 0.0 0.0 0.00 0.00 0.00 94 1025.3
20260509114924 8 153 0.0 0.0 0.00 0.00 0.00 94 1025.3
20260509114423 8 152 0.0 0.0 0.00 0.00 0.00 94 1025.5
20260509113922 8 152 0.0 0.0 0.00 0.00 0.00 94 1025.6
20260509113419 8 153 0.0 0.0 0.00 0.00 0.00 93 1025.3
20260509112916 8 153 0.0 0.0 0.00 0.00 0.00 93 1025.4
20260509112413 8 153 0.0 0.0 0.00 0.00 0.00 93 1025.3
20260509111909 8 153 0.0 0.0 0.00 0.00 0.00 93 1025.5
20260509111406 9 152 0.0 0.0 0.00 0.00 0.00 93 1025.5
20260509110904 9 153 0.0 0.0 0.00 0.00 0.00 93 1025.5
20260509110359 9 152 0.0 0.0 0.00 0.00 0.00 92 1025.3
20260509105858 9 153 0.0 0.0 0.00 0.00 0.00 92 1025.7
20260509105356 10 153 0.0 0.0 0.00 0.00 0.00 92 1025.7
20260509104852 10 152 0.0 0.0 0.00 0.00 0.00 92 1025.7
20260509104349 10 153 0.0 0.0 0.00 0.00 0.00 91 1025.6
20260509103847 10 150 0.0 0.0 0.00 0.00 0.00 91 1025.5
20260509103344 10 150 0.0 0.0 0.00 0.00 0.00 90 1025.6
20260509102843 10 130 0.0 0.0 0.00 0.00 0.00 90 1025.6
20260509102339 10 148 0.0 1.6 0.00 0.00 0.00 89 1025.5
20260509101835 10 143 1.6 1.6 0.00 0.00 0.00 89 1025.6
20260509101331 11 153 0.0 1.6 0.00 0.00 0.00 88 1025.7
20260509100830 11 153 0.0 0.0 0.00 0.00 0.00 87 1025.6
20260509100326 11 161 0.0 3.2 0.00 0.00 0.00 87 1025.9
20260509095823 11 161 0.0 0.0 0.00 0.00 0.00 87 1026.0
20260509095320 11 154 0.0 0.0 0.00 0.00 0.00 86 1026.0
20260509094817 11 172 1.6 1.6 0.00 0.00 0.00 85 1025.8
20260509094314 11 167 0.0 3.2 0.00 0.00 0.00 85 1025.8
20260509093812 11 166 0.0 0.0 0.00 0.00 0.00 85 1025.9
20260509093309 11 203 0.0 0.0 0.00 0.00 0.00 85 1025.9
20260509092807 11 189 1.6 1.6 0.00 0.00 0.00 85 1026.0
20260509092306 11 164 1.6 1.6 0.00 0.00 0.00 85 1026.0
20260509091803 11 158 0.0 0.0 0.00 0.00 0.00 85 1025.9
20260509091259 11 171 0.0 0.0 0.00 0.00 0.00 85 1026.1
20260509090756 11 159 0.0 0.0 0.00 0.00 0.00 85 1025.9
20260509090253 11 155 1.6 1.6 0.00 0.00 0.00 85 1026.2
20260509085751 12 171 0.0 0.0 0.00 0.00 0.00 85 1026.3
20260509085248 12 170 0.0 1.6 0.00 0.00 0.00 85 1026.2
20260509084744 12 173 1.6 3.2 0.00 0.00 0.00 85 1026.4
20260509084241 12 177 1.6 3.2 0.00 0.00 0.00 85 1026.4
20260509083739 12 202 0.0 3.2 0.00 0.00 0.00 85 1026.0
20260509083236 12 213 4.8 4.8 0.00 0.00 0.00 85 1026.0
20260509082732 12 172 3.2 3.2 0.00 0.00 0.00 85 1026.2
20260509082230 12 167 1.6 1.6 0.00 0.00 0.00 85 1026.1
20260509081726 12 171 1.6 4.8 0.00 0.00 0.00 85 1026.2
20260509081224 12 182 1.6 1.6 0.00 0.00 0.00 84 1026.0
20260509080722 12 157 0.0 1.6 0.00 0.00 0.00 84 1026.3
20260509080219 12 169 1.6 3.2 0.00 0.00 0.00 84 1025.9
20260509075718 12 191 1.6 4.8 0.00 0.00 0.00 85 1026.1
20260509075215 11 185 0.0 1.6 0.00 0.00 0.00 87 1026.1
20260509074711 11 166 3.2 3.2 0.00 0.00 0.00 89 1025.9
20260509074209 11 156 0.0 0.0 0.00 0.00 0.00 90 1026.2
20260509073705 11 161 0.0 0.0 0.00 0.00 0.00 90 1025.9
20260509073201 10 152 0.0 0.0 0.00 0.00 0.00 90 1026.1
20260509072658 10 151 0.0 0.0 0.00 0.00 0.00 90 1026.0
20260509072155 10 149 0.0 0.0 0.00 0.00 0.00 91 1025.9
20260509071651 10 145 0.0 0.0 0.00 0.00 0.00 91 1025.9
20260509071148 10 151 0.0 0.0 0.00 0.00 0.00 91 1025.9
20260509070645 10 141 0.0 0.0 0.00 0.00 0.00 91 1025.8
20260509070142 10 159 0.0 0.0 0.00 0.00 0.00 91 1026.1
20260509065637 10 150 0.0 0.0 0.00 0.00 0.00 91 1025.9
20260509065129 10 150 0.0 0.0 0.00 0.00 0.00 91 1025.8
20260509064626 10 150 0.0 0.0 0.00 0.00 0.00 91 1025.6
20260509064124 10 152 0.0 0.0 0.00 0.00 0.00 91 1025.8
20260509063620 10 152 0.0 0.0 0.00 0.00 0.00 91 1025.9
20260509063117 10 152 0.0 0.0 0.00 0.00 0.00 91 1025.8
20260509062614 9 146 1.6 3.2 0.00 0.00 0.00 91 1025.9
20260509062111 9 139 0.0 0.0 0.00 0.00 0.00 91 1025.8
20260509061608 9 129 0.0 0.0 0.00 0.00 0.00 91 1025.8
20260509061105 9 160 0.0 0.0 0.00 0.00 0.00 91 1025.6
20260509060603 9 152 0.0 0.0 0.00 0.00 0.00 90 1025.6
20260509060059 9 132 1.6 3.2 0.00 0.00 0.00 91 1025.7
20260509055554 9 138 0.0 0.0 0.00 0.00 0.00 90 1025.5
20260509055050 10 149 0.0 0.0 0.00 0.00 0.00 90 1025.7
20260509054548 10 150 0.0 0.0 0.00 0.00 0.00 90 1025.6
20260509054045 10 155 0.0 0.0 0.00 0.00 0.00 89 1025.7
20260509053543 10 153 0.0 0.0 0.00 0.00 0.00 89 1025.6
20260509053040 10 151 0.0 0.0 0.00 0.00 0.00 88 1025.4
20260509052538 10 151 0.0 0.0 0.00 0.00 0.00 88 1025.7
20260509052036 10 145 0.0 0.0 0.00 0.00 0.00 88 1025.5
20260509051533 10 136 1.6 1.6 0.00 0.00 0.00 88 1025.4
20260509051030 10 143 0.0 0.0 0.00 0.00 0.00 87 1025.5
20260509050526 10 122 1.6 1.6 0.00 0.00 0.00 87 1025.6
20260509050023 10 154 3.2 3.2 0.00 0.00 0.00 87 1025.7
20260509045521 10 109 0.0 0.0 0.00 0.00 0.00 87 1025.4
20260509045018 10 144 0.0 0.0 0.00 0.00 0.00 87 1025.5
20260509044515 10 147 0.0 0.0 0.00 0.00 0.00 86 1025.5
20260509044012 10 148 0.0 0.0 0.00 0.00 0.00 85 1025.4
20260509043508 11 148 0.0 0.0 0.00 0.00 0.00 84 1025.3
20260509043004 11 148 0.0 0.0 0.00 0.00 0.00 84 1025.3
20260509042500 11 147 0.0 0.0 0.00 0.00 0.00 84 1025.6
20260509041956 11 150 0.0 0.0 0.00 0.00 0.00 83 1025.3
20260509041453 11 150 1.6 1.6 0.00 0.00 0.00 82 1025.3
20260509040951 11 166 1.6 1.6 0.00 0.00 0.00 81 1025.1
20260509040449 11 150 0.0 0.0 0.00 0.00 0.00 80 1025.4
20260509035945 12 148 0.0 0.0 0.00 0.00 0.00 79 1025.1
20260509035442 12 153 0.0 0.0 0.00 0.00 0.00 78 1025.2
20260509034939 12 137 0.0 0.0 0.00 0.00 0.00 77 1025.0
20260509034437 12 161 0.0 0.0 0.00 0.00 0.00 75 1024.9
20260509033934 12 161 0.0 1.6 0.00 0.00 0.00 75 1024.9
20260509033431 13 161 0.0 1.6 0.00 0.00 0.00 75 1024.9
20260509032927 13 164 1.6 1.6 0.00 0.00 0.00 74 1024.9
20260509032425 13 152 0.0 1.6 0.00 0.00 0.00 74 1024.6
20260509031923 13 154 0.0 0.0 0.00 0.00 0.00 74 1024.6
20260509031420 13 154 0.0 1.6 0.00 0.00 0.00 72 1024.6
20260509030917 13 141 0.0 0.0 0.00 0.00 0.00 72 1024.7
20260509030415 13 148 0.0 0.0 0.00 0.00 0.00 70 1024.5
20260509025912 14 150 0.0 1.6 0.00 0.00 0.00 70 1024.5
20260509025407 14 140 0.0 1.6 0.00 0.00 0.00 69 1024.4
20260509024902 14 153 0.0 1.6 0.00 0.00 0.00 68 1024.4